| time (UTC) | temp C | wind direction | speed KPH | gust KPH | rain 1hr cm | rain 24hr cm | rain mn cm | humidity % | barometer mb |
| 20260510202411 | 17 | 18 | 0.0 | 0.0 | 0.00 | 0.00 | 0.00 | 52 | 1014.7 |
| 20260510202133 | 17 | 18 | 0.0 | 0.0 | 0.00 | 0.00 | 0.00 | 52 | 1014.6 |
| 20260510201409 | 17 | 18 | 0.0 | 0.0 | 0.00 | 0.00 | 0.00 | 53 | 1014.5 |
| 20260510200908 | 17 | 18 | 0.0 | 1.6 | 0.00 | 0.00 | 0.00 | 52 | 1014.5 |
| 20260510200406 | 17 | 18 | 0.0 | 1.6 | 0.00 | 0.00 | 0.00 | 54 | 1014.5 |
| 20260510195903 | 17 | 22 | 0.0 | 1.6 | 0.00 | 0.00 | 0.00 | 53 | 1014.6 |
| 20260510195402 | 17 | 29 | 0.0 | 1.6 | 0.00 | 0.00 | 0.00 | 55 | 1014.5 |
| 20260510194902 | 17 | 29 | 0.0 | 12.9 | 0.00 | 0.00 | 0.00 | 54 | 1014.3 |
| 20260510194845 | 17 | 29 | 1.6 | 12.9 | 0.00 | 0.00 | 0.00 | 53 | 1014.2 |
| 20260510194128 | 17 | 31 | 0.0 | 9.7 | 0.00 | 0.00 | 0.00 | 55 | 1014.2 |
| 20260510193408 | 17 | 39 | 0.0 | 8.0 | 0.00 | 0.00 | 0.00 | 55 | 1014.3 |
| 20260510192903 | 17 | 39 | 0.0 | 8.0 | 0.00 | 0.00 | 0.00 | 54 | 1014.3 |
| 20260510192622 | 17 | 40 | 0.0 | 0.0 | 0.00 | 0.00 | 0.00 | 54 | 1014.5 |
| 20260510192339 | 17 | 40 | 0.0 | 6.4 | 0.00 | 0.00 | 0.00 | 56 | 1014.5 |
| 20260510191633 | 17 | 42 | 0.0 | 6.4 | 0.00 | 0.00 | 0.00 | 56 | 1014.5 |
| 20260510190902 | 17 | 338 | 0.0 | 0.0 | 0.00 | 0.00 | 0.00 | 61 | 1014.4 |
| 20260510190403 | 16 | 334 | 0.0 | 0.0 | 0.00 | 0.00 | 0.00 | 64 | 1014.5 |
| 20260510190122 | 16 | 334 | 0.0 | 0.0 | 0.00 | 0.00 | 0.00 | 65 | 1014.7 |
| 20260510185403 | 16 | 334 | 0.0 | 0.0 | 0.00 | 0.00 | 0.00 | 65 | 1014.9 |
| 20260510184902 | 16 | 334 | 0.0 | 0.0 | 0.00 | 0.00 | 0.00 | 65 | 1015.1 |
| 20260510184403 | 16 | 334 | 0.0 | 0.0 | 0.00 | 0.00 | 0.00 | 66 | 1015.2 |
| 20260510183902 | 16 | 333 | 0.0 | 0.0 | 0.00 | 0.00 | 0.00 | 66 | 1015.3 |
| 20260510183402 | 16 | 333 | 0.0 | 0.0 | 0.00 | 0.00 | 0.00 | 65 | 1015.2 |
| 20260510182902 | 16 | 333 | 0.0 | 0.0 | 0.00 | 0.00 | 0.00 | 66 | 1015.1 |
| 20260510182403 | 16 | 333 | 0.0 | 0.0 | 0.00 | 0.00 | 0.00 | 64 | 1015.0 |
| 20260510181901 | 16 | 333 | 0.0 | 0.0 | 0.00 | 0.00 | 0.00 | 63 | 1015.0 |
| 20260510181403 | 16 | 333 | 0.0 | 0.0 | 0.00 | 0.00 | 0.00 | 64 | 1014.9 |
| 20260510181123 | 16 | 333 | 0.0 | 0.0 | 0.00 | 0.00 | 0.00 | 66 | 1014.8 |
| 20260510180619 | 16 | 333 | 0.0 | 0.0 | 0.00 | 0.00 | 0.00 | 64 | 1014.7 |
| 20260510175903 | 16 | 333 | 0.0 | 0.0 | 0.00 | 0.00 | 0.00 | 65 | 1014.8 |
| 20260510175403 | 16 | 332 | 0.0 | 0.0 | 0.00 | 0.00 | 0.00 | 66 | 1014.8 |
| 20260510174902 | 16 | 332 | 0.0 | 0.0 | 0.00 | 0.00 | 0.00 | 64 | 1014.9 |
| 20260510174623 | 16 | 331 | 0.0 | 0.0 | 0.00 | 0.00 | 0.00 | 66 | 1015.0 |
| 20260510173902 | 16 | 332 | 0.0 | 1.6 | 0.00 | 0.00 | 0.00 | 66 | 1014.9 |
| 20260510173402 | 16 | 332 | 0.0 | 1.6 | 0.00 | 0.00 | 0.00 | 65 | 1014.9 |
| 20260510172902 | 16 | 331 | 0.0 | 0.0 | 0.00 | 0.00 | 0.00 | 64 | 1015.0 |
| 20260510172402 | 16 | 331 | 0.0 | 0.0 | 0.00 | 0.00 | 0.00 | 63 | 1015.0 |
| 20260510172122 | 16 | 331 | 0.0 | 4.8 | 0.00 | 0.00 | 0.00 | 61 | 1014.9 |
| 20260510171624 | 16 | 331 | 0.0 | 6.4 | 0.00 | 0.00 | 0.00 | 60 | 1014.6 |
| 20260510170902 | 16 | 44 | 1.6 | 14.5 | 0.00 | 0.00 | 0.00 | 60 | 1014.3 |
| 20260510170403 | 16 | 322 | 1.6 | 14.5 | 0.00 | 0.00 | 0.00 | 59 | 1014.2 |
| 20260510165902 | 16 | 40 | 0.0 | 8.0 | 0.00 | 0.00 | 0.00 | 59 | 1014.3 |
| 20260510165402 | 16 | 319 | 0.0 | 4.8 | 0.00 | 0.00 | 0.00 | 59 | 1014.2 |
| 20260510164902 | 16 | 336 | 0.0 | 0.0 | 0.00 | 0.00 | 0.00 | 62 | 1014.2 |
| 20260510164848 | 16 | 334 | 0.0 | 0.0 | 0.00 | 0.00 | 0.00 | 65 | 1014.2 |
| 20260510163903 | 16 | 334 | 0.0 | 0.0 | 0.00 | 0.00 | 0.00 | 65 | 1014.3 |
| 20260510163402 | 16 | 334 | 0.0 | 0.0 | 0.00 | 0.00 | 0.00 | 66 | 1014.3 |
| 20260510162902 | 16 | 333 | 0.0 | 1.6 | 0.00 | 0.00 | 0.00 | 66 | 1014.2 |
| 20260510162403 | 16 | 332 | 1.6 | 12.9 | 0.00 | 0.00 | 0.00 | 68 | 1014.0 |
| 20260510162122 | 16 | 61 | 1.6 | 12.9 | 0.00 | 0.00 | 0.00 | 66 | 1013.9 |
| 20260510161837 | 16 | 49 | 0.0 | 6.4 | 0.00 | 0.00 | 0.00 | 68 | 1014.0 |
| 20260510160849 | 16 | 329 | 0.0 | 16.1 | 0.00 | 0.00 | 0.00 | 68 | 1013.9 |
| 20260510160826 | 16 | 19 | 1.6 | 16.1 | 0.00 | 0.00 | 0.00 | 70 | 1013.9 |
| 20260510160058 | 16 | 0 | 0.0 | 9.7 | 0.00 | 0.00 | 0.00 | 68 | 1013.8 |
| 20260510155332 | 15 | 9 | 0.0 | 1.6 | 0.00 | 0.00 | 0.00 | 69 | 1013.9 |
| 20260510154826 | 15 | 31 | 0.0 | 8.0 | 0.00 | 0.00 | 0.00 | 71 | 1013.8 |
| 20260510154320 | 15 | 5 | 0.0 | 8.0 | 0.00 | 0.00 | 0.00 | 72 | 1013.8 |
| 20260510153813 | 15 | 326 | 0.0 | 14.5 | 0.00 | 0.00 | 0.00 | 72 | 1013.7 |
| 20260510153307 | 15 | 355 | 1.6 | 14.5 | 0.00 | 0.00 | 0.00 | 74 | 1013.6 |
| 20260510152808 | 15 | 326 | 1.6 | 8.0 | 0.00 | 0.00 | 0.00 | 74 | 1013.5 |
| 20260510152528 | 15 | 328 | 0.0 | 9.7 | 0.00 | 0.00 | 0.00 | 75 | 1013.4 |
| 20260510152032 | 15 | 343 | 0.0 | 12.9 | 0.00 | 0.00 | 0.00 | 73 | 1013.0 |
| 20260510151307 | 15 | 15 | 0.0 | 12.9 | 0.00 | 0.00 | 0.00 | 72 | 1013.1 |
| 20260510150808 | 15 | 327 | 0.0 | 12.9 | 0.00 | 0.00 | 0.00 | 72 | 1013.2 |
| 20260510150306 | 15 | 355 | 1.6 | 12.9 | 0.00 | 0.00 | 0.00 | 72 | 1012.9 |
| 20260510145806 | 15 | 337 | 1.6 | 14.5 | 0.00 | 0.00 | 0.00 | 73 | 1012.8 |
| 20260510145306 | 16 | 324 | 1.6 | 14.5 | 0.00 | 0.00 | 0.00 | 73 | 1012.8 |
| 20260510144802 | 16 | 329 | 1.6 | 12.9 | 0.00 | 0.00 | 0.00 | 72 | 1012.7 |
| 20260510144303 | 16 | 336 | 1.6 | 12.9 | 0.00 | 0.00 | 0.00 | 72 | 1012.6 |
| 20260510144026 | 16 | 290 | 1.6 | 11.3 | 0.00 | 0.00 | 0.00 | 73 | 1012.7 |
| 20260510143303 | 16 | 273 | 1.6 | 12.9 | 0.00 | 0.00 | 0.00 | 73 | 1012.8 |
| 20260510142803 | 16 | 215 | 0.0 | 12.9 | 0.00 | 0.00 | 0.00 | 74 | 1012.8 |
| 20260510142305 | 16 | 181 | 0.0 | 9.7 | 0.00 | 0.00 | 0.00 | 74 | 1012.7 |
| 20260510141802 | 16 | 180 | 0.0 | 9.7 | 0.00 | 0.00 | 0.00 | 74 | 1012.8 |
| 20260510141302 | 16 | 180 | 0.0 | 6.4 | 0.00 | 0.00 | 0.00 | 75 | 1012.8 |
| 20260510140802 | 16 | 180 | 0.0 | 4.8 | 0.00 | 0.00 | 0.00 | 76 | 1012.6 |
| 20260510140301 | 16 | 180 | 0.0 | 4.8 | 0.00 | 0.00 | 0.00 | 76 | 1012.8 |
| 20260510135756 | 16 | 180 | 0.0 | 6.4 | 0.00 | 0.00 | 0.00 | 76 | 1013.0 |
| 20260510135250 | 16 | 180 | 0.0 | 6.4 | 0.00 | 0.00 | 0.00 | 76 | 1013.1 |
| 20260510134749 | 16 | 180 | 0.0 | 3.2 | 0.00 | 0.00 | 0.00 | 75 | 1012.9 |
| 20260510134249 | 16 | 180 | 0.0 | 4.8 | 0.00 | 0.00 | 0.00 | 75 | 1012.9 |
| 20260510133749 | 16 | 180 | 0.0 | 4.8 | 0.00 | 0.00 | 0.00 | 75 | 1012.9 |
| 20260510133247 | 16 | 179 | 0.0 | 0.0 | 0.00 | 0.00 | 0.00 | 75 | 1012.9 |
| 20260510132746 | 16 | 180 | 0.0 | 0.0 | 0.00 | 0.00 | 0.00 | 75 | 1012.9 |
| 20260510132243 | 16 | 180 | 0.0 | 0.0 | 0.00 | 0.00 | 0.00 | 76 | 1012.7 |
| 20260510132007 | 16 | 179 | 0.0 | 0.0 | 0.00 | 0.03 | 0.00 | 76 | 1012.6 |
| 20260510131509 | 16 | 179 | 0.0 | 0.0 | 0.00 | 0.03 | 0.00 | 76 | 1012.4 |
| 20260510131000 | 16 | 180 | 0.0 | 0.0 | 0.00 | 0.03 | 0.00 | 76 | 1012.3 |
| 20260510130240 | 16 | 180 | 0.0 | 0.0 | 0.00 | 0.03 | 0.00 | 76 | 1012.1 |
| 20260510125740 | 16 | 180 | 0.0 | 0.0 | 0.00 | 0.03 | 0.00 | 77 | 1011.8 |
| 20260510125240 | 16 | 179 | 0.0 | 0.0 | 0.00 | 0.03 | 0.00 | 77 | 1011.6 |
| 20260510124738 | 16 | 179 | 0.0 | 0.0 | 0.00 | 0.03 | 0.00 | 77 | 1011.5 |
| 20260510124236 | 16 | 179 | 0.0 | 0.0 | 0.00 | 0.03 | 0.00 | 77 | 1011.3 |
| 20260510123735 | 15 | 180 | 0.0 | 0.0 | 0.00 | 0.03 | 0.00 | 77 | 1011.2 |
| 20260510123235 | 15 | 180 | 0.0 | 0.0 | 0.00 | 0.03 | 0.00 | 78 | 1010.9 |
| 20260510122733 | 15 | 179 | 0.0 | 0.0 | 0.00 | 0.03 | 0.00 | 78 | 1010.7 |
| 20260510122231 | 15 | 179 | 0.0 | 0.0 | 0.00 | 0.03 | 0.00 | 79 | 1010.5 |
| 20260510121731 | 15 | 179 | 0.0 | 0.0 | 0.00 | 0.03 | 0.00 | 79 | 1010.5 |
| 20260510121231 | 15 | 179 | 0.0 | 0.0 | 0.00 | 0.03 | 0.00 | 79 | 1010.5 |
| 20260510120725 | 15 | 180 | 0.0 | 0.0 | 0.00 | 0.03 | 0.00 | 79 | 1010.1 |
| 20260510120442 | 15 | 179 | 0.0 | 0.0 | 0.00 | 0.03 | 0.00 | 80 | 1009.9 |
| 20260510115713 | 15 | 180 | 0.0 | 0.0 | 0.00 | 0.03 | 0.00 | 80 | 1010.0 |
| 20260510115207 | 15 | 180 | 0.0 | 1.6 | 0.00 | 0.03 | 0.00 | 80 | 1009.9 |
| 20260510114708 | 15 | 179 | 0.0 | 1.6 | 0.00 | 0.03 | 0.00 | 82 | 1009.7 |
| 20260510114207 | 15 | 179 | 0.0 | 0.0 | 0.00 | 0.03 | 0.00 | 83 | 1009.3 |
| 20260510113707 | 14 | 180 | 0.0 | 0.0 | 0.00 | 0.03 | 0.00 | 84 | 1009.2 |
| 20260510113208 | 14 | 179 | 0.0 | 0.0 | 0.00 | 0.03 | 0.00 | 84 | 1009.1 |
| 20260510112707 | 14 | 180 | 0.0 | 0.0 | 0.00 | 0.03 | 0.00 | 85 | 1009.0 |
| 20260510112207 | 14 | 180 | 0.0 | 1.6 | 0.00 | 0.03 | 0.00 | 86 | 1009.0 |
| 20260510111932 | 13 | 179 | 0.0 | 11.3 | 0.00 | 0.03 | 0.00 | 88 | 1009.1 |
| 20260510111205 | 13 | 180 | 0.0 | 11.3 | 0.00 | 0.03 | 0.00 | 89 | 1009.0 |
| 20260510110929 | 13 | 178 | 0.0 | 4.8 | 0.00 | 0.03 | 0.00 | 89 | 1008.8 |
| 20260510110203 | 13 | 178 | 0.0 | 0.0 | 0.00 | 0.03 | 0.00 | 89 | 1008.4 |
| 20260510105911 | 13 | 178 | 0.0 | 0.0 | 0.00 | 0.03 | 0.00 | 88 | 1008.1 |
| 20260510105902 | 13 | 178 | 0.0 | 0.0 | 0.00 | 0.03 | 0.00 | 88 | 1008.1 |
| 20260510104704 | 13 | 178 | 0.0 | 0.0 | 0.00 | 0.03 | 0.00 | 88 | 1008.1 |
| 20260510104204 | 13 | 178 | 0.0 | 0.0 | 0.00 | 0.03 | 0.00 | 88 | 1008.1 |
| 20260510103703 | 13 | 178 | 0.0 | 0.0 | 0.00 | 0.03 | 0.00 | 88 | 1008.1 |
| 20260510103204 | 13 | 178 | 0.0 | 0.0 | 0.00 | 0.03 | 0.00 | 88 | 1008.2 |
| 20260510102704 | 13 | 178 | 0.0 | 0.0 | 0.00 | 0.03 | 0.00 | 87 | 1008.2 |
| 20260510102203 | 14 | 178 | 0.0 | 0.0 | 0.00 | 0.03 | 0.00 | 87 | 1008.1 |
| 20260510101656 | 14 | 178 | 0.0 | 0.0 | 0.00 | 0.03 | 0.00 | 86 | 1008.1 |
| 20260510101413 | 14 | 178 | 0.0 | 0.0 | 0.00 | 0.03 | 0.00 | 86 | 1008.2 |
| 20260510100644 | 14 | 178 | 0.0 | 0.0 | 0.00 | 0.03 | 0.00 | 85 | 1008.0 |
| 20260510100145 | 14 | 178 | 0.0 | 0.0 | 0.00 | 0.03 | 0.00 | 85 | 1008.1 |
| 20260510095645 | 15 | 178 | 0.0 | 0.0 | 0.00 | 0.03 | 0.00 | 85 | 1008.1 |
| 20260510095143 | 15 | 178 | 0.0 | 0.0 | 0.00 | 0.03 | 0.00 | 84 | 1008.0 |
| 20260510094906 | 15 | 178 | 0.0 | 0.0 | 0.00 | 0.03 | 0.00 | 84 | 1008.0 |
| 20260510094139 | 15 | 178 | 0.0 | 0.0 | 0.00 | 0.03 | 0.00 | 84 | 1008.0 |
| 20260510093639 | 15 | 178 | 0.0 | 0.0 | 0.00 | 0.03 | 0.00 | 83 | 1007.9 |
| 20260510093139 | 15 | 178 | 0.0 | 0.0 | 0.00 | 0.03 | 0.00 | 83 | 1007.9 |
| 20260510092637 | 15 | 178 | 0.0 | 0.0 | 0.00 | 0.03 | 0.00 | 83 | 1007.8 |
| 20260510092137 | 15 | 178 | 0.0 | 1.6 | 0.00 | 0.03 | 0.00 | 82 | 1007.8 |
| 20260510091637 | 15 | 178 | 0.0 | 1.6 | 0.00 | 0.03 | 0.00 | 82 | 1007.7 |
| 20260510091135 | 15 | 178 | 0.0 | 0.0 | 0.00 | 0.03 | 0.00 | 82 | 1007.7 |
| 20260510090632 | 15 | 178 | 0.0 | 0.0 | 0.00 | 0.03 | 0.00 | 81 | 1007.6 |
| 20260510090133 | 15 | 178 | 0.0 | 0.0 | 0.00 | 0.03 | 0.00 | 81 | 1007.6 |
| 20260510085633 | 16 | 178 | 0.0 | 0.0 | 0.00 | 0.03 | 0.00 | 80 | 1007.4 |
| 20260510085132 | 16 | 178 | 0.0 | 0.0 | 0.00 | 0.03 | 0.00 | 79 | 1007.2 |
| 20260510084632 | 16 | 178 | 0.0 | 0.0 | 0.00 | 0.03 | 0.00 | 79 | 1006.9 |
| 20260510084355 | 16 | 178 | 0.0 | 0.0 | 0.00 | 0.03 | 0.00 | 78 | 1006.8 |
| 20260510083632 | 16 | 178 | 0.0 | 0.0 | 0.00 | 0.03 | 0.00 | 78 | 1006.9 |
| 20260510083131 | 16 | 178 | 0.0 | 0.0 | 0.00 | 0.03 | 0.00 | 78 | 1006.8 |
| 20260510082625 | 16 | 178 | 0.0 | 0.0 | 0.00 | 0.03 | 0.00 | 77 | 1006.7 |
| 20260510082119 | 16 | 178 | 0.0 | 0.0 | 0.00 | 0.03 | 0.00 | 76 | 1006.8 |
| 20260510081612 | 17 | 178 | 0.0 | 0.0 | 0.00 | 0.03 | 0.00 | 75 | 1006.7 |
| 20260510081113 | 17 | 178 | 0.0 | 0.0 | 0.00 | 0.03 | 0.00 | 75 | 1006.6 |
| 20260510080613 | 17 | 178 | 0.0 | 0.0 | 0.00 | 0.03 | 0.00 | 74 | 1006.5 |
| 20260510080113 | 17 | 178 | 0.0 | 0.0 | 0.00 | 0.03 | 0.00 | 74 | 1006.3 |
| 20260510075613 | 17 | 178 | 0.0 | 0.0 | 0.00 | 0.03 | 0.00 | 73 | 1006.3 |
| 20260510075113 | 17 | 178 | 0.0 | 0.0 | 0.00 | 0.03 | 0.00 | 73 | 1006.4 |
| 20260510074613 | 17 | 178 | 0.0 | 0.0 | 0.00 | 0.03 | 0.00 | 73 | 1006.3 |
| 20260510074112 | 18 | 178 | 0.0 | 0.0 | 0.00 | 0.03 | 0.00 | 71 | 1006.2 |
| 20260510073613 | 18 | 178 | 0.0 | 0.0 | 0.00 | 0.03 | 0.00 | 70 | 1006.1 |
| 20260510073112 | 18 | 178 | 0.0 | 0.0 | 0.00 | 0.03 | 0.00 | 69 | 1006.2 |
| 20260510072613 | 18 | 178 | 0.0 | 0.0 | 0.00 | 0.03 | 0.00 | 68 | 1006.2 |
| 20260510072113 | 18 | 178 | 0.0 | 0.0 | 0.00 | 0.03 | 0.00 | 67 | 1006.0 |
| 20260510071611 | 18 | 178 | 0.0 | 0.0 | 0.00 | 0.03 | 0.00 | 67 | 1006.0 |
| 20260510071111 | 18 | 178 | 0.0 | 0.0 | 0.00 | 0.03 | 0.00 | 66 | 1006.1 |
| 20260510070609 | 18 | 178 | 0.0 | 0.0 | 0.00 | 0.03 | 0.00 | 66 | 1006.0 |
| 20260510070109 | 19 | 178 | 0.0 | 0.0 | 0.00 | 0.03 | 0.00 | 65 | 1005.9 |
| 20260510065609 | 19 | 178 | 0.0 | 0.0 | 0.00 | 0.03 | 0.00 | 64 | 1005.8 |
| 20260510065552 | 19 | 178 | 0.0 | 0.0 | 0.00 | 0.03 | 0.00 | 64 | 1005.8 |
| 20260510064607 | 19 | 178 | 0.0 | 0.0 | 0.00 | 0.03 | 0.00 | 64 | 1006.0 |
| 20260510064107 | 20 | 178 | 0.0 | 0.0 | 0.00 | 0.03 | 0.00 | 63 | 1006.0 |
| 20260510064051 | 20 | 178 | 0.0 | 0.0 | 0.00 | 0.03 | 0.00 | 63 | 1005.9 |
| 20260510063107 | 20 | 178 | 0.0 | 0.0 | 0.00 | 0.03 | 0.00 | 62 | 1006.2 |
| 20260510062606 | 20 | 178 | 0.0 | 0.0 | 0.00 | 0.03 | 0.00 | 61 | 1006.1 |
| 20260510062333 | 20 | 178 | 0.0 | 0.0 | 0.00 | 0.03 | 0.00 | 61 | 1006.0 |
| 20260510061606 | 20 | 178 | 0.0 | 0.0 | 0.00 | 0.03 | 0.00 | 61 | 1006.2 |
| 20260510061107 | 20 | 178 | 0.0 | 0.0 | 0.00 | 0.03 | 0.00 | 60 | 1006.2 |
| 20260510060607 | 20 | 178 | 0.0 | 0.0 | 0.00 | 0.03 | 0.00 | 60 | 1006.2 |
| 20260510060105 | 20 | 178 | 0.0 | 0.0 | 0.00 | 0.03 | 0.00 | 58 | 1006.0 |
| 20260510055604 | 21 | 178 | 0.0 | 0.0 | 0.00 | 0.03 | 0.00 | 58 | 1005.8 |
| 20260510055104 | 21 | 178 | 0.0 | 0.0 | 0.00 | 0.03 | 0.00 | 57 | 1005.6 |
| 20260510054604 | 21 | 178 | 0.0 | 0.0 | 0.00 | 0.03 | 0.00 | 55 | 1005.7 |
| 20260510054105 | 21 | 178 | 0.0 | 1.6 | 0.00 | 0.03 | 0.00 | 55 | 1005.8 |
| 20260510053603 | 21 | 178 | 0.0 | 3.2 | 0.00 | 0.03 | 0.00 | 54 | 1005.8 |
| 20260510053104 | 21 | 178 | 1.6 | 6.4 | 0.00 | 0.03 | 0.00 | 54 | 1005.8 |
| 20260510052604 | 21 | 177 | 1.6 | 11.3 | 0.00 | 0.03 | 0.00 | 56 | 1005.8 |
| 20260510052104 | 20 | 177 | 1.6 | 14.5 | 0.00 | 0.03 | 0.00 | 57 | 1005.8 |
| 20260510051603 | 20 | 174 | 0.0 | 14.5 | 0.00 | 0.03 | 0.00 | 59 | 1006.1 |
| 20260510051104 | 19 | 175 | 0.0 | 3.2 | 0.00 | 0.03 | 0.00 | 62 | 1006.6 |
| 20260510050603 | 18 | 173 | 0.0 | 0.0 | 0.00 | 0.03 | 0.00 | 66 | 1007.2 |
| 20260510050111 | 18 | 173 | 0.0 | 0.0 | 0.00 | 0.03 | 0.00 | 67 | 1007.5 |
| 20260510045604 | 18 | 173 | 0.0 | 0.0 | 0.00 | 0.03 | 0.03 | 69 | 1007.8 |
| 20260510045107 | 18 | 173 | 0.0 | 0.0 | 0.00 | 0.03 | 0.03 | 69 | 1007.9 |
| 20260510044619 | 18 | 173 | 0.0 | 0.0 | 0.00 | 0.03 | 0.03 | 70 | 1007.9 |
| 20260510044109 | 18 | 173 | 0.0 | 0.0 | 0.00 | 0.03 | 0.03 | 70 | 1007.9 |
| 20260510043608 | 18 | 173 | 0.0 | 0.0 | 0.00 | 0.03 | 0.03 | 70 | 1007.8 |
| 20260510043108 | 18 | 173 | 0.0 | 0.0 | 0.00 | 0.03 | 0.03 | 69 | 1007.7 |
| 20260510042609 | 18 | 173 | 0.0 | 0.0 | 0.00 | 0.03 | 0.03 | 69 | 1007.5 |
| 20260510042109 | 18 | 173 | 0.0 | 0.0 | 0.00 | 0.03 | 0.03 | 69 | 1007.5 |
| 20260510041608 | 18 | 173 | 0.0 | 0.0 | 0.00 | 0.03 | 0.03 | 70 | 1007.5 |
| 20260510041114 | 18 | 173 | 0.0 | 0.0 | 0.00 | 0.03 | 0.03 | 70 | 1007.6 |
| 20260510040605 | 18 | 173 | 0.0 | 0.0 | 0.00 | 0.03 | 0.03 | 70 | 1007.6 |
| 20260510040104 | 18 | 173 | 0.0 | 0.0 | 0.00 | 0.03 | 0.03 | 70 | 1007.6 |
| 20260510040057 | 18 | 173 | 0.0 | 0.0 | 0.00 | 0.03 | 0.03 | 70 | 1007.5 |
| 20260510035104 | 18 | 173 | 0.0 | 0.0 | 0.00 | 0.03 | 0.03 | 71 | 1007.5 |
| 20260510034605 | 18 | 173 | 0.0 | 0.0 | 0.00 | 0.03 | 0.03 | 71 | 1007.4 |
| 20260510034104 | 18 | 173 | 0.0 | 0.0 | 0.00 | 0.03 | 0.03 | 71 | 1007.2 |
| 20260510033606 | 18 | 173 | 0.0 | 0.0 | 0.00 | 0.03 | 0.03 | 71 | 1007.0 |
| 20260510033106 | 17 | 173 | 0.0 | 0.0 | 0.00 | 0.03 | 0.03 | 71 | 1006.9 |
| 20260510032604 | 17 | 173 | 0.0 | 0.0 | 0.00 | 0.03 | 0.03 | 71 | 1006.8 |
| 20260510032105 | 17 | 173 | 0.0 | 0.0 | 0.00 | 0.03 | 0.03 | 70 | 1006.7 |
| 20260510031556 | 17 | 173 | 0.0 | 0.0 | 0.00 | 0.03 | 0.03 | 69 | 1006.5 |
| 20260510031319 | 17 | 173 | 0.0 | 0.0 | 0.00 | 0.03 | 0.03 | 69 | 1006.4 |
| 20260510030544 | 17 | 173 | 0.0 | 0.0 | 0.00 | 0.03 | 0.03 | 68 | 1006.2 |
| 20260510030037 | 17 | 173 | 0.0 | 0.0 | 0.00 | 0.03 | 0.03 | 67 | 1006.1 |
| 20260510025538 | 18 | 173 | 0.0 | 0.0 | 0.00 | 0.03 | 0.03 | 66 | 1006.1 |
| 20260510025036 | 18 | 173 | 0.0 | 0.0 | 0.00 | 0.03 | 0.03 | 66 | 1006.0 |
| 20260510024535 | 18 | 173 | 0.0 | 0.0 | 0.00 | 0.03 | 0.03 | 65 | 1005.9 |
| 20260510024513 | 18 | 173 | 0.0 | 0.0 | 0.00 | 0.03 | 0.03 | 64 | 1005.8 |
| 20260510023532 | 18 | 173 | 0.0 | 0.0 | 0.00 | 0.03 | 0.03 | 63 | 1005.6 |
| 20260510023257 | 18 | 173 | 0.0 | 0.0 | 0.00 | 0.03 | 0.03 | 62 | 1005.5 |
| 20260510022754 | 18 | 173 | 0.0 | 0.0 | 0.00 | 0.03 | 0.03 | 60 | 1005.3 |
| 20260510022032 | 19 | 173 | 0.0 | 0.0 | 0.00 | 0.03 | 0.03 | 60 | 1005.3 |
| 20260510021533 | 19 | 173 | 0.0 | 0.0 | 0.00 | 0.03 | 0.03 | 58 | 1005.2 |
| 20260510021031 | 20 | 173 | 0.0 | 0.0 | 0.00 | 0.03 | 0.03 | 57 | 1005.2 |
| 20260510020532 | 20 | 173 | 0.0 | 0.0 | 0.00 | 0.03 | 0.03 | 56 | 1005.1 |
| 20260510020256 | 20 | 173 | 0.0 | 0.0 | 0.00 | 0.03 | 0.03 | 54 | 1005.1 |
| 20260510015532 | 20 | 173 | 0.0 | 0.0 | 0.00 | 0.03 | 0.03 | 53 | 1004.9 |
| 20260510015259 | 21 | 173 | 0.0 | 0.0 | 0.00 | 0.03 | 0.03 | 52 | 1004.8 |
| 20260510014532 | 21 | 173 | 0.0 | 0.0 | 0.00 | 0.03 | 0.03 | 51 | 1004.8 |
| 20260510014031 | 21 | 173 | 0.0 | 0.0 | 0.00 | 0.03 | 0.03 | 50 | 1004.6 |
| 20260510013532 | 22 | 173 | 0.0 | 0.0 | 0.00 | 0.03 | 0.03 | 48 | 1004.4 |
| 20260510013032 | 22 | 173 | 0.0 | 0.0 | 0.00 | 0.03 | 0.03 | 47 | 1004.3 |
| 20260510012749 | 23 | 173 | 0.0 | 0.0 | 0.00 | 0.03 | 0.03 | 45 | 1004.2 |
| 20260510012244 | 23 | 173 | 0.0 | 0.0 | 0.00 | 0.03 | 0.03 | 44 | 1004.2 |
| 20260510011514 | 23 | 173 | 0.0 | 0.0 | 0.00 | 0.03 | 0.03 | 42 | 1004.1 |
| 20260510011233 | 24 | 173 | 0.0 | 0.0 | 0.00 | 0.03 | 0.03 | 42 | 1003.9 |
| 20260510010507 | 25 | 173 | 0.0 | 0.0 | 0.00 | 0.03 | 0.03 | 40 | 1003.9 |
| 20260510010007 | 25 | 173 | 0.0 | 0.0 | 0.00 | 0.03 | 0.03 | 39 | 1003.8 |
| 20260510005507 | 25 | 173 | 0.0 | 0.0 | 0.00 | 0.03 | 0.03 | 38 | 1003.7 |
| 20260510005008 | 25 | 173 | 0.0 | 1.6 | 0.00 | 0.03 | 0.03 | 38 | 1003.6 |
| 20260510004508 | 25 | 173 | 0.0 | 1.6 | 0.00 | 0.03 | 0.03 | 37 | 1003.5 |
| 20260510004013 | 26 | 173 | 0.0 | 0.0 | 0.00 | 0.03 | 0.03 | 37 | 1003.4 |
| 20260510003729 | 26 | 173 | 0.0 | 0.0 | 0.00 | 0.03 | 0.03 | 36 | 1003.5 |
| 20260510003005 | 26 | 173 | 0.0 | 1.6 | 0.00 | 0.03 | 0.03 | 36 | 1003.4 |
| 20260510002504 | 26 | 173 | 0.0 | 1.6 | 0.00 | 0.03 | 0.03 | 35 | 1003.3 |
| 20260510002004 | 26 | 173 | 0.0 | 0.0 | 0.00 | 0.03 | 0.03 | 34 | 1003.3 |
| 20260510001505 | 26 | 173 | 0.0 | 1.6 | 0.00 | 0.03 | 0.03 | 33 | 1003.2 |
| 20260510001009 | 27 | 173 | 0.0 | 3.2 | 0.00 | 0.03 | 0.03 | 32 | 1003.1 |
| 20260510000505 | 27 | 173 | 0.0 | 4.8 | 0.00 | 0.03 | 0.03 | 32 | 1003.1 |
| 20260510000223 | 27 | 175 | 0.0 | 4.8 | 0.00 | 0.03 | 0.03 | 30 | 1003.2 |
| 20260509235505 | 27 | 175 | 0.0 | 1.6 | 0.00 | 0.03 | 0.03 | 30 | 1003.2 |
| 20260509235005 | 27 | 175 | 0.0 | 11.3 | 0.00 | 0.03 | 0.03 | 29 | 1003.3 |
| 20260509234732 | 27 | 175 | 0.0 | 11.3 | 0.00 | 0.03 | 0.03 | 29 | 1003.3 |
| 20260509234004 | 27 | 173 | 0.0 | 4.8 | 0.00 | 0.03 | 0.03 | 28 | 1003.3 |
| 20260509233504 | 27 | 174 | 0.0 | 6.4 | 0.00 | 0.03 | 0.03 | 29 | 1003.3 |
| 20260509233004 | 27 | 175 | 0.0 | 6.4 | 0.00 | 0.03 | 0.03 | 30 | 1003.4 |
| 20260509232505 | 27 | 174 | 0.0 | 6.4 | 0.00 | 0.03 | 0.03 | 30 | 1003.3 |
| 20260509232004 | 27 | 177 | 0.0 | 4.8 | 0.00 | 0.03 | 0.03 | 32 | 1003.3 |
| 20260509231726 | 27 | 178 | 1.6 | 11.3 | 0.00 | 0.03 | 0.03 | 33 | 1003.4 |
| 20260509231004 | 27 | 180 | 0.0 | 11.3 | 0.00 | 0.03 | 0.03 | 32 | 1003.4 |
| 20260509230507 | 27 | 172 | 0.0 | 9.7 | 0.00 | 0.03 | 0.03 | 33 | 1003.4 |
| 20260509230004 | 27 | 171 | 0.0 | 9.7 | 0.00 | 0.03 | 0.03 | 34 | 1003.4 |
| 20260509225502 | 27 | 176 | 1.6 | 12.9 | 0.00 | 0.03 | 0.03 | 36 | 1003.3 |
| 20260509225002 | 27 | 178 | 0.0 | 12.9 | 0.00 | 0.03 | 0.03 | 35 | 1003.3 |
| 20260509224502 | 28 | 169 | 0.0 | 6.4 | 0.00 | 0.03 | 0.03 | 35 | 1003.4 |
| 20260509224003 | 28 | 169 | 0.0 | 8.0 | 0.00 | 0.03 | 0.03 | 35 | 1003.4 |
| 20260509223502 | 28 | 169 | 0.0 | 8.0 | 0.00 | 0.03 | 0.03 | 35 | 1003.4 |
| 20260509222957 | 28 | 169 | 0.0 | 6.4 | 0.00 | 0.03 | 0.03 | 34 | 1003.4 |
| 20260509222456 | 28 | 171 | 0.0 | 6.4 | 0.00 | 0.03 | 0.03 | 33 | 1003.4 |
| 20260509221950 | 28 | 171 | 0.0 | 1.6 | 0.00 | 0.03 | 0.03 | 35 | 1003.4 |
| 20260509221453 | 28 | 171 | 0.0 | 0.0 | 0.00 | 0.03 | 0.03 | 33 | 1003.5 |
| 20260509220950 | 28 | 171 | 0.0 | 0.0 | 0.00 | 0.05 | 0.03 | 34 | 1003.4 |
| 20260509220446 | 28 | 171 | 0.0 | 1.6 | 0.00 | 0.05 | 0.03 | 35 | 1003.5 |
| 20260509215946 | 28 | 171 | 0.0 | 1.6 | 0.00 | 0.05 | 0.03 | 32 | 1003.6 |
| 20260509215447 | 28 | 168 | 0.0 | 1.6 | 0.00 | 0.08 | 0.03 | 34 | 1003.6 |
| 20260509214947 | 28 | 167 | 0.0 | 1.6 | 0.00 | 0.08 | 0.03 | 34 | 1003.6 |
| 20260509214444 | 28 | 168 | 0.0 | 1.6 | 0.00 | 0.08 | 0.03 | 36 | 1003.7 |
| 20260509213944 | 28 | 168 | 0.0 | 1.6 | 0.00 | 0.08 | 0.03 | 34 | 1003.7 |
| 20260509213444 | 28 | 168 | 0.0 | 6.4 | 0.00 | 0.08 | 0.03 | 32 | 1003.7 |
| 20260509212940 | 28 | 167 | 0.0 | 6.4 | 0.00 | 0.08 | 0.03 | 34 | 1003.7 |
| 20260509212442 | 28 | 167 | 0.0 | 8.0 | 0.00 | 0.08 | 0.03 | 34 | 1003.8 |
| 20260509211939 | 28 | 167 | 0.0 | 8.0 | 0.00 | 0.08 | 0.03 | 32 | 1003.8 |
| 20260509211440 | 28 | 170 | 0.0 | 4.8 | 0.00 | 0.08 | 0.03 | 33 | 1003.9 |
| 20260509210939 | 28 | 179 | 0.0 | 1.6 | 0.00 | 0.08 | 0.03 | 33 | 1004.0 |
| 20260509210439 | 28 | 180 | 0.0 | 0.0 | 0.00 | 0.08 | 0.03 | 34 | 1004.0 |
| 20260509205942 | 28 | 180 | 0.0 | 0.0 | 0.00 | 0.08 | 0.03 | 35 | 1004.0 |
| 20260509205708 | 28 | 180 | 0.0 | 1.6 | 0.00 | 0.10 | 0.03 | 35 | 1004.1 |
| 20260509204946 | 28 | 182 | 0.0 | 1.6 | 0.00 | 0.10 | 0.03 | 36 | 1004.1 |
| 20260509204438 | 28 | 177 | 0.0 | 0.0 | 0.00 | 0.10 | 0.03 | 30 | 1004.2 |
| 20260509203936 | 28 | 177 | 0.0 | 0.0 | 0.00 | 0.10 | 0.03 | 31 | 1004.4 |
| 20260509203440 | 28 | 177 | 0.0 | 0.0 | 0.00 | 0.10 | 0.03 | 33 | 1004.4 |
| 20260509202936 | 28 | 177 | 0.0 | 1.6 | 0.00 | 0.10 | 0.03 | 31 | 1004.4 |